Change the Weather History Date:

Tuesday, February 12, 2013

  Actual Average Record
Temperature  
Mean Temperature -26 °F -  
Max Temperature -22 °F -11 °F 14 °F (2006)
Min Temperature -31 °F -20 °F -49 °F (2009)
Degree Days  
Heating Degree Days 92    
Moisture  
Dew Point -33 °F    
Average Humidity 71    
Maximum Humidity 76    
Minimum Humidity 68    
Precipitation  
Precipitation 0.00 in - - ()
Sea Level Pressure  
Sea Level Pressure 29.86 in    
Wind  
Wind Speed 0 mph (NNE)    
Max Wind Speed 4 mph    
Max Gust Speed -    
Visibility 10 miles    
Events      
Averages and records for this station are not official NWS values.
T = Trace of Precipitation, MM = Missing Value Source: NWS Daily Summary

Daily Weather History Graph

Daily Weather History Graph

Search for Another Location

Airport or City:

Trip Planner

Search our weather history database for the weather conditions in past years. The results will help you decide how hot, cold, wet, or windy it might be!

Date:

Astronomy

Feb. 12, 2013 Rise Set
Actual Time 10:34 AM AKST 5:39 PM AKST
Civil Twilight 9:25 AM AKST 6:48 PM AKST
Nautical Twilight 8:13 AM AKST 8:00 PM AKST
Astronomical Twilight 7:04 AM AKST 9:10 PM AKST
Moon 9:35 AM AKST (2/12) 11:15 PM AKST (2/12)
Length of Visible Light 9h 23m
Length of Day
7h 04m
Waxing Crescent, 8% of the Moon is Illuminated
Feb 12
Waxing Crescent
Feb 17
First Quarter
Feb 25
Full
Mar 4
Last Quarter
Mar 11
New

Hourly Weather History & Observations

Time (AKST) Temp. Windchill Dew Point Humidity Pressure Visibility Wind Dir Wind Speed Gust Speed Precip Events Conditions
12:56 AM -27.9 °F - -35.0 °F 69% 29.80 in 10.0 mi Calm Calm - N/A   Clear
1:56 AM -27.9 °F - -35.0 °F 69% 29.81 in 10.0 mi Calm Calm - N/A   Clear
2:56 AM -28.8 °F - -35.9 °F 69% 29.81 in 10.0 mi Calm Calm - N/A   Clear
3:56 AM -31.0 °F - - N/A% 29.81 in 10.0 mi Calm Calm - N/A   Clear
4:56 AM -31.9 °F - - N/A% 29.82 in 10.0 mi Calm Calm - N/A   Clear
5:56 AM -31.9 °F - - N/A% 29.82 in 10.0 mi Calm Calm - N/A   Clear
6:56 AM -31.9 °F - - N/A% 29.82 in 10.0 mi Calm Calm - N/A   Scattered Clouds
7:56 AM -28.8 °F - -35.9 °F 69% 29.83 in 10.0 mi Calm Calm - N/A   Mostly Cloudy
8:56 AM -25.6 °F - -32.8 °F 69% 29.82 in 10.0 mi Calm Calm - N/A   Mostly Cloudy
9:56 AM -22.9 °F - -28.8 °F 74% 29.84 in 10.0 mi Calm Calm - N/A   Overcast
10:56 AM -24.9 °F - -31.9 °F 70% 29.85 in 10.0 mi Calm Calm - N/A   Clear
11:56 AM -22.9 °F - -29.9 °F 70% 29.86 in 10.0 mi Calm Calm - N/A   Clear
12:56 PM -24.9 °F - -31.0 °F 73% 29.87 in 10.0 mi Calm Calm - N/A   Clear
1:56 PM -22.0 °F - -27.9 °F 74% 29.87 in 10.0 mi Calm Calm - N/A   Overcast
2:56 PM -24.9 °F - -31.0 °F 73% 29.88 in 10.0 mi Calm Calm - N/A   Clear
3:35 PM -23.8 °F - -29.2 °F 76% 29.86 in 10.0 mi Calm Calm - N/A   Partly Cloudy
3:56 PM -24.0 °F - -31.0 °F 70% 29.88 in 5.0 mi Calm Calm - N/A   Haze
4:32 PM -25.6 °F - -31.0 °F 76% 29.86 in 10.0 mi Calm Calm - N/A   Scattered Clouds
4:56 PM -24.9 °F - -31.9 °F 70% 29.88 in 10.0 mi Calm Calm - N/A   Clear
5:45 PM -27.4 °F - -32.8 °F 75% 29.87 in 10.0 mi Calm Calm - N/A   Partly Cloudy
5:56 PM -26.9 °F - -33.0 °F 73% 29.88 in 10.0 mi Calm Calm - N/A   Partly Cloudy
6:56 PM -27.9 °F - -35.0 °F 69% 29.89 in 10.0 mi Calm Calm - N/A   Mostly Cloudy
7:56 PM -27.9 °F - -35.0 °F 69% 29.89 in 10.0 mi Calm Calm - N/A   Partly Cloudy
8:56 PM -28.8 °F - -35.9 °F 69% 29.89 in 10.0 mi Calm Calm - N/A   Mostly Cloudy
9:07 PM -29.2 °F - -36.4 °F 68% 29.87 in 10.0 mi Calm Calm - N/A   Scattered Clouds
9:36 PM -29.2 °F - -36.4 °F 68% 29.88 in 10.0 mi Calm Calm - N/A   Mostly Cloudy
9:56 PM -28.8 °F - -35.9 °F 69% 29.89 in 10.0 mi Calm Calm - N/A   Partly Cloudy
10:56 PM -28.8 °F - -35.9 °F 69% 29.89 in 10.0 mi Calm Calm - N/A   Clear
11:34 PM -27.4 °F - -34.6 °F 69% 29.87 in 10.0 mi Calm Calm - N/A   Scattered Clouds
11:56 PM -26.9 °F -38.5 °F -33.9 °F 69% 29.89 in 10.0 mi NNE 3.5 mph - N/A   Partly Cloudy